GSAT-30

Last updated on Mon Oct 20 2025 00:02:50 GMT+0000 (Coordinated Universal Time)

1 45026U 20005A 25292.06971633 -.00000169 00000+0 00000+0 0 9994 2 45026 0.0036 157.0355 0002313 22.9251 315.9630 1.00273327 21098
UTC large
Height (km)
Speed (km/s)
/
Latitude / Longitude
Inclination (degrees)
Orbital Period (minutes)
Azimuth
Elevation
Range (km)
Doppler Factor

Next 0 passes for location: London (51.5072 / 0.1276)

Sorry there are no passes over London.